GFSCGP_sfc_30mbdewp_021.txt.gz
Dewpoint
17 18 26 25 26 24 22 23 22 24 25 23 23 24 25 26 27 27 28 28 30 32 37 43 46 48 51 53 53 53 55 56 55 57 56 58 57 58 58 59 60 61 60 58
16 13 21 29 27 26 25 22 22 23 25 24 23 23 24 25 26 27 29 29 32 39 44 46 47 50 52 53 53 53 54 55 57 58 57 59 59 59 59 59 60 61 61 59
10 11 16 26 26 25 24 21 20 19 22 25 25 25 25 25 27 29 31 31 33 34 44 46 48 50 52 52 53 54 54 56 59 58 58 58 58 58 58 58 58 59 60 61
8 8 15 18 23 17 16 20 19 20 21 19 26 21 23 24 24 26 25 25 29 40 47 47 47 49 51 51 54 54 56 58 57 59 57 56 56 56 58 57 58 58 59 60
12 8 10 14 15 17 16 21 23 23 24 25 25 24 24 25 23 24 24 25 35 44 47 47 47 48 49 52 54 55 57 58 57 58 57 56 56 57 57 56 57 57 59 60
9 13 9 12 18 19 17 17 21 23 23 20 21 23 22 22 23 24 25 32 40 44 47 47 47 47 48 52 54 55 57 58 58 57 57 55 55 54 54 56 57 58 59 59
15 12 12 11 11 15 15 13 11 15 17 20 21 22 22 24 25 25 24 32 41 46 47 46 46 47 49 52 54 55 56 57 57 57 56 56 55 55 55 57 58 58 58 59
14 12 14 12 10 10 12 13 16 15 19 19 23 21 21 25 26 28 28 36 43 46 48 46 47 48 48 52 54 55 55 55 56 57 56 57 57 56 57 58 58 58 58 58
14 11 15 14 12 9 10 12 16 18 22 20 20 22 23 25 27 30 35 40 43 46 47 47 47 48 48 51 53 54 54 54 56 56 57 56 57 57 58 59 58 59 60 60
17 11 14 14 14 12 10 12 12 15 14 14 19 20 19 22 25 35 37 38 43 47 48 48 48 48 49 51 53 54 53 52 55 55 56 57 57 58 59 58 58 57 59 59
22 18 17 15 14 12 10 10 12 11 16 15 17 19 25 22 27 31 35 40 43 46 47 47 48 47 49 51 51 53 52 53 54 55 55 57 57 58 58 57 59 59 59 60
31 19 16 14 15 15 13 10 12 14 15 16 19 18 26 24 26 33 34 40 43 46 47 47 47 46 48 49 50 52 52 53 53 54 54 56 58 58 56 57 59 59 59 60
32 25 16 13 18 17 13 12 11 12 22 19 17 18 24 31 29 36 35 40 43 45 47 47 46 45 47 48 50 51 51 52 52 51 55 56 57 57 56 58 59 59 59 60
31 31 23 12 13 15 13 12 13 11 9 13 19 19 25 28 28 37 38 41 43 45 46 46 46 45 46 47 50 50 50 50 51 50 55 55 55 56 57 57 58 59 59 59
29 26 29 27 17 15 18 13 11 15 15 15 16 19 22 28 31 35 39 42 43 44 45 45 45 45 45 47 49 50 50 49 50 50 54 52 54 55 57 57 58 58 58 59
30 22 29 28 23 16 13 18 12 13 15 18 21 20 25 29 37 39 40 41 42 43 44 45 44 45 45 46 48 49 49 49 50 50 52 52 53 55 56 57 57 58 58 59
27 28 20 24 23 17 14 14 15 16 20 19 20 22 27 31 37 39 40 41 41 42 43 44 43 43 44 46 47 48 49 49 49 49 52 52 54 54 54 57 57 56 55 55
25 25 25 21 24 13 16 16 14 17 19 24 22 22 26 28 36 39 41 40 41 42 43 44 43 42 43 46 47 48 48 49 49 48 51 51 53 52 53 55 54 53 53 54
29 25 22 26 24 17 17 21 14 15 16 25 23 23 26 28 35 38 41 41 40 41 42 43 44 42 42 45 47 48 47 49 48 48 50 49 53 52 52 53 52 52 52 53
31 26 22 30 28 14 25 31 23 23 14 24 26 25 26 30 27 30 40 41 40 40 42 43 44 42 41 43 47 47 46 48 48 48 48 49 53 52 52 53 52 52 52 52
28 28 26 26 27 29 37 37 38 18 23 43 32 25 26 27 27 29 39 40 40 40 41 42 43 41 41 44 47 45 44 46 47 48 48 48 51 52 52 53 53 51 52 51
30 30 27 27 30 27 38 38 32 38 42 46 44 29 25 26 26 29 38 40 40 39 41 43 42 41 42 44 45 44 43 45 46 47 47 47 49 51 53 53 53 52 51 50
29 32 30 34 37 36 37 36 37 38 37 43 48 48 34 27 26 29 37 40 39 39 41 42 41 41 42 44 44 43 42 42 45 46 46 46 48 49 53 52 54 53 51 49
35 38 35 35 40 38 37 37 36 38 37 38 47 50 45 29 29 30 38 40 40 40 41 43 41 41 42 44 44 43 42 40 43 43 45 46 46 48 52 52 53 54 53 51
35 37 35 35 38 37 36 35 36 38 37 37 42 50 48 34 30 32 37 40 41 40 42 43 41 41 41 43 44 44 42 40 41 42 42 44 46 48 51 53 53 53 54 54
37 35 34 33 38 38 37 37 38 37 37 37 39 51 49 43 32 36 37 41 42 41 43 43 41 41 42 43 43 45 43 41 41 41 41 42 46 48 51 52 52 50 53 54

GFSCGP_sfc_30mbdewp_024.txt.gz
Dewpoint
15 17 22 18 19 17 14 14 14 14 23 23 24 24 25 26 27 26 26 27 28 30 35 38 44 49 51 53 53 54 54 55 56 56 56 57 57 58 58 59 59 60 60 59
14 13 17 22 22 20 20 18 19 20 25 24 23 24 25 26 26 27 27 27 29 33 40 44 46 50 51 53 53 54 55 55 55 57 57 58 58 58 59 59 59 60 60 60
6 8 14 24 23 23 23 21 20 18 22 22 21 19 20 24 28 28 29 31 32 34 39 45 48 50 52 53 53 53 55 55 57 58 58 57 57 57 57 57 58 58 60 60
8 7 12 19 23 24 19 26 25 25 22 18 23 19 21 22 25 27 25 26 27 33 46 47 50 51 52 52 53 53 54 57 58 58 57 55 55 54 57 57 57 57 58 60
9 7 7 13 22 27 21 23 25 24 21 21 22 22 24 26 24 24 24 24 27 39 46 47 49 51 52 53 53 54 56 58 57 58 56 55 54 56 56 56 56 57 58 60
11 14 8 10 15 23 21 19 20 22 22 17 19 21 17 22 23 24 24 27 37 45 47 48 49 50 51 54 54 55 57 57 57 57 56 54 53 53 54 56 57 57 58 59
14 11 11 10 14 19 18 15 13 12 13 14 18 20 17 24 26 25 24 26 41 47 46 47 48 48 50 53 54 55 57 57 57 57 56 55 54 54 55 57 58 57 58 58
15 12 12 11 10 16 16 15 12 8 10 16 18 20 22 25 26 27 28 30 43 47 46 46 47 48 50 53 54 55 56 56 57 57 56 56 56 56 56 58 58 58 58 58
17 15 15 12 11 12 16 15 17 13 22 20 21 23 24 25 26 28 30 38 43 46 46 46 47 47 50 52 54 54 55 55 56 56 56 56 57 57 58 58 58 59 59 59
18 14 15 14 11 11 11 15 14 14 9 14 19 20 18 21 20 29 34 37 43 47 46 46 47 48 50 52 53 54 54 54 55 56 56 56 57 58 58 58 57 57 58 59
27 17 16 14 12 10 11 12 13 12 18 14 16 18 25 22 22 26 33 39 44 46 46 46 47 48 49 52 53 54 53 53 55 55 54 56 57 57 57 58 58 58 59 59
32 26 16 13 15 13 10 11 11 8 10 15 19 16 26 25 24 30 31 38 44 47 47 47 47 48 49 50 51 53 53 52 54 55 54 56 57 57 56 58 58 59 59 60
31 27 18 15 15 16 12 11 13 19 17 12 12 13 25 26 26 29 34 40 44 47 47 47 46 47 48 49 50 52 53 52 53 53 55 56 57 56 56 58 58 59 59 60
31 28 28 15 16 16 13 12 11 11 11 17 13 15 18 25 28 35 36 41 44 46 47 47 46 46 48 48 50 51 52 52 52 53 55 56 56 57 56 57 58 59 59 59
30 24 27 27 27 28 21 14 13 10 11 11 16 19 21 24 27 33 37 41 44 45 46 46 46 46 47 48 49 50 51 51 51 52 54 54 55 56 57 58 58 59 59 59
34 25 26 21 23 25 25 21 14 13 12 11 13 14 19 24 35 36 36 40 42 44 45 46 46 46 45 47 49 50 50 50 50 51 53 53 54 56 57 57 58 58 59 60
30 27 23 19 21 24 21 21 18 14 14 15 14 14 25 26 31 35 37 39 41 43 45 45 46 46 45 46 48 49 50 50 50 51 52 52 54 55 56 57 56 56 56 59
27 27 24 20 25 19 21 19 19 16 17 15 17 19 21 23 30 37 39 38 41 43 44 45 45 45 46 46 48 49 49 49 49 50 52 52 55 53 56 55 54 53 54 56
29 27 22 21 28 25 20 32 29 17 15 20 20 20 22 25 37 37 41 40 41 43 44 45 45 45 45 46 47 48 49 49 49 48 51 51 54 52 55 53 52 52 54 55
30 29 24 26 26 20 32 36 37 37 13 38 44 32 24 32 29 30 40 41 42 43 44 45 45 44 44 47 48 48 48 49 48 48 50 51 53 51 53 52 51 52 53 54
30 30 26 24 24 27 35 36 36 15 23 37 39 46 44 28 28 29 37 41 42 42 43 45 44 43 43 47 48 47 47 48 48 48 49 50 53 52 52 52 52 52 52 53
30 29 26 26 27 26 36 35 32 34 37 37 38 39 43 44 33 30 35 40 42 41 43 44 44 43 43 47 47 46 46 48 48 48 48 49 53 52 53 52 51 52 51 51
29 33 31 33 34 38 38 38 37 36 36 37 38 37 39 48 47 30 34 40 41 41 42 43 43 43 43 46 46 45 46 47 48 48 48 48 51 52 53 52 51 50 51 50
36 38 35 34 37 37 38 39 37 36 37 37 37 38 40 49 49 30 35 39 40 41 42 43 42 42 43 45 45 45 45 46 47 47 47 47 49 52 52 53 53 51 49 49
34 37 35 34 37 37 37 37 37 37 39 37 37 39 49 50 47 34 32 40 40 40 42 43 42 42 43 44 45 44 44 46 46 46 46 47 48 50 52 53 53 53 51 49
37 35 34 33 36 38 37 37 39 39 38 36 38 40 48 49 46 34 33 39 40 40 43 42 42 42 43 44 44 44 43 44 45 44 45 46 47 49 51 52 51 50 54 52

GFSCGP_sfc_30mbdewp_030.txt.gz
Dewpoint
20 12 13 16 19 23 22 22 22 23 23 22 20 20 21 23 26 26 27 28 26 27 33 37 45 47 50 52 53 54 55 59 58 57 54 54 52 54 57 58 60 60 61 61
16 11 12 15 16 17 19 20 21 22 23 22 20 21 24 26 27 27 27 26 26 28 34 37 48 50 52 53 54 56 57 60 57 55 54 52 54 55 56 58 60 61 61 61
14 13 10 10 14 16 16 17 19 19 21 21 21 20 23 26 27 27 27 26 24 22 34 40 48 51 52 53 56 56 58 59 57 57 57 59 59 58 56 57 58 60 60 60
15 14 11 9 9 14 15 17 17 17 16 14 18 18 24 26 27 27 26 26 22 28 35 44 48 51 53 54 56 57 58 59 59 59 56 56 52 51 54 55 57 59 60 60
15 13 12 10 10 10 13 16 16 17 18 18 19 20 23 26 27 26 26 25 21 33 37 45 48 51 52 54 55 57 58 57 59 59 57 57 54 55 56 56 59 60 61 61
17 13 12 12 11 10 11 15 17 19 19 18 21 22 24 26 27 26 26 19 20 40 44 47 49 51 52 53 55 57 57 59 59 60 60 58 58 57 56 57 58 59 60 61
18 15 13 11 10 11 13 16 15 17 18 18 22 23 25 27 25 27 20 20 36 43 46 48 49 50 51 52 54 55 57 58 59 59 58 58 59 59 59 58 58 59 60 60
14 16 15 11 10 12 14 18 13 13 18 20 23 22 24 24 26 26 22 21 37 43 46 48 48 50 51 52 53 53 56 56 58 57 58 58 59 57 57 58 58 57 60 59
14 16 15 13 10 12 16 16 16 19 21 17 19 21 22 22 19 19 19 20 36 43 46 47 49 50 50 52 53 54 54 54 56 56 58 59 59 59 57 59 60 61 60 58
24 22 17 13 11 11 16 19 17 18 18 18 15 14 18 18 19 22 29 27 33 44 46 47 49 50 50 52 54 54 53 54 56 56 56 57 59 58 58 59 59 60 60 57
28 25 20 14 11 10 13 17 18 19 17 17 13 12 17 19 20 27 29 32 41 45 45 47 48 49 51 52 53 52 53 54 55 56 56 57 58 57 58 59 58 60 60 58
28 28 24 15 14 12 12 14 19 15 17 14 11 8 28 26 32 26 28 39 43 44 45 46 47 49 50 51 51 51 52 52 54 54 55 56 58 57 58 58 58 60 59 57
35 26 22 18 14 12 12 14 19 18 18 16 11 9 20 29 30 32 37 40 43 44 44 45 46 47 49 50 49 49 51 50 51 51 53 56 58 57 58 59 59 59 60 58
37 31 24 17 13 13 11 13 17 18 15 13 12 8 19 24 27 33 38 42 43 43 44 45 45 46 48 49 46 47 48 50 50 50 52 55 57 58 58 59 59 59 59 58
34 24 25 25 24 24 22 12 12 15 16 11 10 10 8 21 24 32 37 41 42 42 44 45 45 46 48 48 45 46 48 49 50 49 51 55 57 58 58 58 58 59 59 59
34 30 26 23 23 23 21 20 13 12 15 14 12 12 13 14 14 27 38 40 41 42 43 45 45 46 48 47 45 46 47 48 49 49 50 54 56 57 58 59 58 59 60 59
34 31 26 19 20 21 19 20 18 14 14 14 12 14 14 21 19 26 33 39 40 42 43 44 45 47 48 47 45 46 47 48 49 48 50 54 55 56 58 58 59 60 59 60
29 32 29 19 18 17 25 28 21 19 15 15 15 16 16 18 21 23 26 36 39 42 43 44 46 47 49 47 45 46 46 47 48 47 47 53 54 54 57 57 58 60 60 59
27 31 32 22 20 16 25 34 29 21 23 34 30 20 17 17 21 21 25 29 37 41 44 45 46 48 50 47 45 46 46 46 46 46 46 51 52 53 55 54 57 59 61 60
24 28 31 26 19 14 34 36 37 36 28 37 38 37 38 37 27 27 44 43 36 41 45 46 47 49 50 47 46 46 45 45 44 45 45 48 50 52 53 54 57 60 60 59
24 27 26 26 23 28 36 36 36 29 31 39 39 40 40 39 36 43 44 43 44 42 45 47 48 49 50 48 47 46 45 44 44 45 45 46 52 52 53 55 59 59 58 58
26 26 25 27 25 27 38 37 35 38 39 39 40 42 42 43 43 43 43 43 43 44 45 48 48 49 50 48 47 44 44 45 43 44 45 46 52 50 53 54 58 59 58 58
32 35 32 30 35 38 38 39 38 38 39 39 39 41 42 43 44 45 46 46 44 44 45 47 47 49 50 49 47 44 45 45 44 44 45 46 50 52 52 53 57 58 58 55
34 37 35 34 35 35 37 37 37 38 39 39 40 41 43 45 46 47 47 47 46 42 45 46 47 48 49 49 47 44 45 44 44 46 47 47 49 52 53 51 51 53 54 52
35 37 36 33 35 38 38 38 37 39 39 39 40 40 41 45 47 48 48 47 46 42 44 46 46 47 48 49 47 46 45 44 45 47 48 48 48 50 53 52 47 45 50 49
38 36 35 35 34 36 37 37 38 40 38 38 39 39 40 43 47 49 50 50 47 43 42 45 46 47 47 48 47 47 46 44 45 47 48 48 45 49 48 51 51 50 50 50

GFSCGP_sfc_30mbdewp_033.txt.gz
Dewpoint
23 19 12 12 15 19 19 19 21 23 24 24 24 25 26 24 23 23 23 24 28 30 31 30 34 48 48 52 55 57 56 60 62 60 56 55 54 55 53 55 57 59 60 60
20 17 14 11 11 13 14 16 18 22 24 24 24 23 24 24 24 24 25 27 29 30 30 27 42 50 51 54 56 56 56 60 61 58 57 53 53 52 54 55 57 59 59 61
16 18 17 11 10 10 13 16 18 21 23 24 23 23 24 25 25 24 24 25 28 30 29 27 45 51 53 55 56 57 59 61 60 57 56 57 57 57 55 55 57 59 60 61
17 15 15 14 11 9 10 14 17 19 19 19 22 18 20 20 20 23 26 28 30 29 28 26 47 51 53 55 57 59 60 60 57 58 57 57 52 50 52 54 53 58 59 59
13 16 12 14 13 11 10 13 17 18 18 18 17 16 17 17 18 23 26 29 30 30 24 35 47 51 53 55 57 59 60 59 60 58 56 57 54 50 53 53 56 59 61 61
11 14 16 13 14 12 10 10 14 18 17 15 17 17 17 18 20 23 27 30 29 27 27 41 48 52 53 55 57 58 59 58 59 58 58 58 55 55 54 55 57 61 63 63
7 11 15 15 12 13 11 10 10 12 13 14 15 17 18 20 23 26 28 29 25 23 40 46 50 51 53 54 56 57 58 59 59 59 58 57 58 58 57 57 60 60 61 62
2 3 14 15 12 12 12 12 10 10 13 13 15 16 18 26 27 29 30 25 22 39 43 47 49 51 52 54 55 55 58 57 58 57 56 57 57 56 57 59 61 61 60 60
14 0 9 14 14 13 12 11 13 12 12 10 14 19 25 27 26 26 26 27 25 40 45 47 49 50 51 53 54 56 56 56 56 55 56 56 57 58 58 59 61 61 60 59
28 19 5 13 14 14 12 13 11 14 11 10 15 18 20 20 19 22 19 18 25 41 45 47 49 50 51 53 54 55 55 55 54 54 55 55 58 57 56 60 60 60 59 55
28 31 23 8 15 13 10 12 12 14 13 12 14 20 21 21 22 22 19 22 27 42 45 47 48 50 51 53 54 54 52 53 53 53 54 55 57 56 56 59 59 60 59 55
26 32 28 18 16 14 11 12 16 15 16 15 19 19 18 22 22 25 28 29 33 43 45 46 48 49 51 52 53 51 51 51 52 52 53 54 57 55 58 58 59 60 58 55
33 29 23 28 25 15 11 11 15 19 20 18 16 18 17 25 30 26 30 34 42 43 44 45 47 48 50 51 50 50 50 50 51 50 51 54 56 58 58 58 58 59 59 54
37 30 29 29 24 13 12 11 15 19 19 19 19 14 19 26 29 33 37 41 42 43 44 45 46 47 49 49 47 47 47 48 49 48 51 53 58 58 58 58 59 59 59 57
37 27 22 29 35 29 12 12 13 17 20 18 19 17 17 26 30 33 39 40 41 41 43 44 46 47 48 48 44 46 47 48 48 48 50 54 59 57 58 57 58 59 59 57
37 31 25 21 31 31 18 13 13 14 19 18 16 16 14 21 20 30 36 39 40 41 42 44 45 46 48 47 43 45 46 47 47 48 50 54 56 56 58 58 58 60 59 59
32 33 23 28 30 29 18 18 15 15 18 18 16 14 15 16 18 24 34 38 39 41 41 44 45 46 48 46 43 45 46 47 47 48 51 53 56 56 58 58 58 58 60 60
27 31 30 24 29 27 21 21 19 13 14 16 17 18 15 18 22 26 33 38 38 40 41 44 45 47 48 46 43 45 46 46 46 47 50 53 52 55 57 59 59 60 60 60
24 28 32 28 29 26 29 27 20 18 15 20 18 17 16 18 20 27 41 40 38 41 42 45 46 48 49 46 43 45 45 44 45 45 48 51 51 55 57 57 60 61 59 59
22 27 33 29 30 25 39 33 35 33 30 37 35 34 36 34 22 40 44 44 44 39 43 45 46 49 49 46 44 45 44 43 44 44 45 50 50 52 53 55 60 61 60 61
20 26 27 27 26 34 37 36 35 25 36 40 39 39 39 37 36 43 43 43 43 44 43 46 47 48 50 46 44 44 44 42 43 44 44 48 50 52 54 56 60 61 59 60
24 26 25 26 27 32 39 38 34 40 40 40 40 41 42 42 42 42 42 42 42 43 42 46 47 48 51 47 45 44 44 42 42 44 43 47 51 50 54 56 59 59 60 59
31 34 32 33 36 41 38 38 39 40 40 40 41 41 42 43 44 44 44 45 44 43 43 45 47 49 51 47 45 43 44 43 41 44 44 46 52 49 53 55 58 59 58 54
37 38 34 34 39 38 38 38 38 39 40 40 41 42 41 42 44 46 46 46 46 43 45 45 47 48 50 48 45 44 44 43 41 43 46 47 51 49 51 51 54 53 52 48
37 38 35 36 37 38 39 39 38 38 40 39 40 41 41 42 43 46 47 48 46 45 43 45 46 48 50 49 45 43 44 42 42 44 46 47 49 51 51 47 49 49 51 48
37 36 36 34 39 37 35 36 38 38 39 38 39 41 41 41 42 46 48 49 49 46 43 45 46 47 49 49 46 43 43 42 45 46 46 46 46 50 52 49 46 47 49 49

GFSCGP_sfc_30mbdewp_036.txt.gz
Dewpoint
17 19 17 16 16 17 21 21 21 23 24 24 24 25 25 27 28 28 30 28 29 30 30 34 37 46 51 52 57 62 61 63 66 66 64 62 60 60 59 59 59 60 61 61
16 17 20 17 13 12 13 17 19 20 20 20 21 23 26 27 28 28 29 28 29 30 35 36 39 53 53 56 59 61 61 65 65 65 63 60 59 59 58 58 60 60 61 62
15 15 17 18 15 11 12 12 15 16 18 18 18 20 25 26 27 28 27 29 30 30 29 31 40 54 55 58 59 60 62 65 64 62 62 62 60 60 59 58 59 61 60 61
15 16 12 15 16 14 12 11 10 12 12 15 16 17 24 26 26 27 27 28 28 29 32 35 42 55 57 58 59 61 63 64 63 63 61 59 58 56 56 57 60 62 61 61
4 13 15 11 13 16 13 11 10 10 11 15 15 18 20 22 22 21 23 24 27 29 34 35 52 55 56 58 60 62 64 63 62 61 60 61 59 57 56 55 58 59 62 62
4 4 8 15 12 12 15 12 11 11 12 14 18 18 18 20 21 20 23 24 25 32 33 36 53 55 56 58 60 62 63 63 62 62 62 61 59 58 58 57 59 59 63 64
13 8 4 5 12 12 12 16 13 11 10 12 17 17 19 21 20 21 23 25 28 32 33 49 52 54 56 58 60 62 61 62 62 61 61 59 60 59 58 58 60 60 61 62
23 19 5 5 9 13 12 15 13 9 10 11 13 15 17 21 20 23 28 28 31 32 45 50 52 54 55 58 59 60 60 61 61 60 59 59 60 59 60 61 60 60 61 61
24 21 20 5 9 13 14 10 15 14 10 9 11 14 19 20 22 25 27 30 32 41 47 50 52 54 55 57 59 59 60 60 60 59 59 58 59 59 59 61 62 61 61 61
24 22 23 23 3 10 14 14 12 15 10 11 10 13 14 23 25 25 28 28 31 44 47 49 52 53 55 57 58 59 59 59 58 58 58 58 58 57 59 59 61 61 59 58
26 28 25 25 8 7 13 12 12 16 12 12 12 13 18 26 23 22 26 27 31 44 47 49 51 54 55 56 57 58 58 57 56 57 57 58 59 58 60 60 60 61 59 57
27 31 25 23 21 11 14 12 14 13 15 14 12 13 24 23 23 23 26 24 39 45 47 49 50 52 53 55 56 57 56 54 55 55 55 59 57 59 59 60 61 61 60 58
35 29 23 21 24 27 22 14 15 18 20 15 12 15 23 22 22 25 27 26 41 45 47 48 50 51 53 54 54 53 53 53 53 53 56 57 59 59 59 59 60 60 59 59
36 32 27 24 30 36 30 19 14 16 17 16 17 18 21 21 28 31 33 39 44 45 47 48 49 51 52 53 51 51 51 52 52 51 54 59 59 59 59 60 60 60 59 58
36 29 28 24 30 35 36 33 16 13 18 17 19 17 19 26 30 37 41 43 44 45 46 48 49 50 51 51 49 48 49 50 50 50 56 59 60 59 59 59 59 59 59 58
36 30 31 26 23 32 32 30 28 13 16 19 22 20 29 33 34 38 40 41 43 44 44 47 48 50 51 49 46 48 48 49 49 51 57 59 58 59 59 58 60 60 59 59
26 34 31 24 25 29 27 28 28 22 15 20 21 25 29 26 22 34 38 40 41 43 44 46 47 49 50 48 46 48 49 49 49 50 55 58 58 59 59 58 59 60 60 60
24 26 31 28 30 22 29 26 24 17 18 21 22 23 24 25 25 40 40 39 41 42 43 46 47 50 51 47 47 48 48 47 48 50 53 56 56 58 59 59 60 61 61 61
23 25 31 28 29 29 31 34 28 18 24 35 28 20 19 23 40 43 43 44 41 43 45 47 48 51 51 47 47 47 48 46 47 49 52 55 56 58 59 60 61 60 60 61
20 25 31 29 28 27 39 40 38 32 34 38 37 35 36 36 26 42 44 45 45 47 46 47 49 51 51 48 48 48 47 45 46 47 50 51 56 58 58 60 61 61 61 61
18 27 28 28 30 33 40 41 39 30 36 40 40 40 41 41 42 44 43 43 44 45 47 48 49 51 52 49 49 47 47 44 46 45 49 50 53 57 59 61 61 62 61 61
32 28 28 26 28 27 40 40 39 43 42 42 41 42 41 42 41 42 42 43 44 43 46 48 50 53 52 49 48 47 47 45 45 45 47 51 55 54 58 60 61 61 61 60
33 35 34 37 37 42 45 41 43 42 40 41 41 41 42 42 43 44 44 44 44 43 45 47 49 53 53 49 48 47 48 45 44 45 48 53 53 57 57 60 61 61 60 60
35 37 37 38 38 41 44 43 40 40 39 40 40 42 42 42 43 45 45 45 44 44 43 47 49 52 53 49 48 48 48 44 44 47 50 54 53 55 55 59 60 58 59 60
36 39 35 36 38 39 37 39 37 39 39 39 39 41 41 41 42 45 46 47 46 45 43 46 49 51 53 50 48 48 46 44 45 49 50 54 53 54 53 55 55 55 50 57
36 36 34 32 34 34 33 35 37 39 39 38 38 39 41 41 42 43 46 49 49 46 45 46 50 52 52 50 48 46 45 45 48 50 51 51 52 53 51 52 51 48 48 46